Location: Cheadle
(51.0146°N, 113.5417°W)
Time: 14:05:28
(UTC+00:00)

TIGRISAT - Pass Details

Date: 06 December 2023
Orbit: 597 x 674 km, 97.7° (Epoch: 28 February)

Event Time Altitude Azimuth Distance (km) Brightness Sun altitude
Exits shadow 00:28:05 - 17° (NNE) 2,993 ? -8.9°
Rises 00:28:07 0° 17° (NNE) 2,986 ? -8.9°
Reaches altitude 10° 00:30:25 10° 22° (NNE) 2,057 ? -9.2°
Maximum altitude 00:34:48 52° 100° (E) 793 ? -9.8°
Drops below altitude 10° 00:39:02 10° 177° (S) 1,992 ? -10.4°
Sets 00:41:14 0° 182° (S) 2,881 ? -10.8°
